Tracking 29892 objects as of 21-Nov-2024
HD Live streaming from Space Station
objects crossing your sky now

STARLINK-5745

Track STARLINK-5745 now!
10-day predictions
STARLINK-5745 is classified as:


NORAD ID: 55575
Int'l Code: 2023-020G
Perigee: 565.4 km
Apogee: 567.0 km
Inclination: 43.0 °
Period: 95.8 minutes
Semi major axis: 6937 km
RCS: Unknown
Launch date: February 12, 2023
Source: United States (US)
Launch site: AIR FORCE EASTERN TEST RANGE (AFETR)
Your satellite tracking list
Your tracking list is empty




NASA's NSSDC Master Catalog

Two Line Element Set (TLE):
1 55575U 23020G   24325.74850969  .00000280  00000-0  35822-4 0  9992
2 55575  43.0040  60.1275 0001140 266.1865  93.8847 15.02538836 97625
Source of the keplerian elements: AFSPC